Weather History for LFQQ - October, 2012

Change the Weather History Date:

Thursday, October 18, 2012

  Actual Average Record
Temperature  
Mean Temperature 57 °F -  
Max Temperature 61 °F 52 °F 73 °F (2014)
Min Temperature 53 °F 41 °F 32 °F (2010)
Degree Days  
Heating Degree Days 8    
Growing Degree Days 7 (Base 50)    
Moisture  
Dew Point 55 °F    
Average Humidity 90    
Maximum Humidity 100    
Minimum Humidity 77    
Precipitation  
Precipitation 0.12 in - - ()
Sea Level Pressure  
Sea Level Pressure 29.68 in    
Wind  
Wind Speed 6 mph ()    
Max Wind Speed 12 mph    
Max Gust Speed -    
Visibility 5.8 miles    
Events Rain , Thunderstorm    
Averages and records for this station are not official NWS values.
T = Trace of Precipitation, MM = Missing Value Source: Averaged Metar Reports

Daily Weather History Graph

Daily Weather History Graph

Search for Another Location

Airport or City:

Trip Planner

Search our weather history database for the weather conditions in past years. The results will help you decide how hot, cold, wet, or windy it might be!

Date:

Astronomy

Oct. 18, 2012 Rise Set
Actual Time 8:15 AM CEST 6:48 PM CEST
Civil Twilight 7:42 AM CEST 7:22 PM CEST
Nautical Twilight 7:04 AM CEST 7:59 PM CEST
Astronomical Twilight 6:26 AM CEST 8:37 PM CEST
Moon 12:03 PM CEST (10/18) 8:44 PM CEST (10/18)
Length of Visible Light 11h 39m
Length of Day
10h 33m
Waxing Crescent, 12% of the Moon is Illuminated
Oct 18
Waxing Crescent
Oct 22
First Quarter
Oct 29
Full
Nov 7
Last Quarter
Nov 13
New

Hourly Weather History & Observations

Time (CEST) Temp. Dew Point Humidity Pressure Visibility Wind Dir Wind Speed Gust Speed Precip Events Conditions
12:00 AM 53.6 °F 51.8 °F 94% 29.62 in 2.5 mi SE 3.5 mph - N/A   Mostly Cloudy
1:00 AM 55.4 °F 53.6 °F 94% 29.62 in 6.2 mi South 8.1 mph - N/A   Mostly Cloudy
2:00 AM 57 °F 52 °F 77% 29.64 in 31 mi South 8.1 mph - -   Partly Cloudy
2:00 AM 57.2 °F 51.8 °F 82% 29.62 in - South 8.1 mph - N/A   Clear
2:30 AM 55.4 °F 51.8 °F 88% 29.62 in 6.2 mi South 8.1 mph - N/A   Unknown
3:00 AM 55.4 °F 51.8 °F 88% 29.62 in 6.2 mi SSE 11.5 mph - N/A   Unknown
3:30 AM 55.4 °F 51.8 °F 88% 29.62 in 6.2 mi South 9.2 mph - N/A   Unknown
4:00 AM 57.2 °F 53.6 °F 88% 29.62 in 6.2 mi SSE 8.1 mph - N/A   Overcast
4:30 AM 55.4 °F 53.6 °F 94% 29.62 in 6.2 mi SSE 5.8 mph - N/A   Overcast
5:00 AM 55.4 °F 53.6 °F 94% 29.62 in 6.2 mi South 3.5 mph - N/A   Mostly Cloudy
6:00 AM 57.2 °F 53.6 °F 88% 29.62 in 6.2 mi South 5.8 mph - N/A   Mostly Cloudy
6:30 AM 57.2 °F 55.4 °F 94% 29.62 in 6.2 mi South 9.2 mph - N/A Rain Light Rain Showers
7:00 AM 57.2 °F 55.4 °F 94% 29.62 in 6.2 mi South 8.1 mph - N/A Rain Rain
7:30 AM 57.2 °F 55.4 °F 94% 29.62 in 4.3 mi South 6.9 mph - N/A Rain Rain
8:00 AM 57.2 °F 55.4 °F 94% 29.62 in 6.2 mi South 9.2 mph - N/A Rain Rain
8:30 AM 57.2 °F 55.4 °F 94% 29.65 in 6.2 mi South 9.2 mph - N/A Rain Rain
9:00 AM 57.2 °F 55.4 °F 94% 29.65 in 6.2 mi South 10.4 mph - N/A Rain Rain
9:30 AM 57.2 °F 55.4 °F 94% 29.65 in 6.2 mi South 11.5 mph - N/A Rain Rain
10:00 AM 57.2 °F 55.4 °F 94% 29.68 in 6.2 mi South 11.5 mph - N/A Rain Light Rain
10:30 AM 57.2 °F 55.4 °F 94% 29.68 in 6.2 mi South 9.2 mph - N/A Rain Light Rain
11:00 AM 59.0 °F 55.4 °F 88% 29.68 in 6.2 mi South 8.1 mph - N/A Rain Light Rain
11:30 AM 59.0 °F 55.4 °F 88% 29.68 in 6.2 mi South 10.4 mph - N/A Rain Light Rain
12:00 PM 60.8 °F 55.4 °F 82% 29.68 in 6.2 mi South 9.2 mph - N/A Rain Light Rain
12:30 PM 60.8 °F 55.4 °F 82% 29.71 in 6.2 mi SSW 8.1 mph - N/A Rain Light Rain
1:00 PM 60.8 °F 57.2 °F 88% 29.71 in 6.2 mi SSW 8.1 mph - N/A Rain Light Rain
1:30 PM 60.8 °F 55.4 °F 82% 29.71 in 6.2 mi South 9.2 mph - N/A Rain Light Rain
2:00 PM 60 °F 56 °F 83% 29.72 in 16 mi SSW 4.6 mph - - Rain Light Rain
2:00 PM 60.8 °F 55.4 °F 82% 29.71 in 6.2 mi SSW 4.6 mph - N/A Rain Light Rain
2:30 PM 60.8 °F 57.2 °F 88% 29.71 in 6.2 mi South 3.5 mph - N/A Rain Light Rain
3:00 PM 60.8 °F 57.2 °F 88% 29.68 in 6.2 mi SSE 3.5 mph - N/A Rain Light Rain
3:30 PM 62.6 °F 57.2 °F 82% 29.71 in 6.2 mi South 3.5 mph - N/A Rain Light Rain
4:30 PM 62.6 °F 59.0 °F 88% 29.71 in 6.2 mi Variable 2.3 mph - N/A Rain Light Rain
5:00 PM 60.8 °F 59.0 °F 94% 29.71 in 6.2 mi South 2.3 mph - N/A Rain Light Rain
5:30 PM 60.8 °F 59.0 °F 94% 29.71 in 6.2 mi Variable 2.3 mph - N/A Rain Light Rain
6:00 PM 60.8 °F 59.0 °F 94% 29.71 in 3.7 mi NW 4.6 mph - N/A Rain Rain
6:37 PM 59.0 °F 57.2 °F 94% 29.71 in 6.2 mi NW 4.6 mph - N/A Rain Light Rain
7:00 PM 59.0 °F 57.2 °F 94% 29.74 in 6.2 mi Variable 3.5 mph - N/A Rain Light Rain
7:30 PM 59.0 °F 57.2 °F 94% 29.74 in 6.2 mi NNW 3.5 mph - N/A Rain Light Rain
8:00 PM 58 °F 56 °F 92% 29.76 in 7 mi North 1.2 mph - - Rain Light Rain
8:00 PM 57.2 °F 57.2 °F 100% 29.74 in 6.2 mi North 2.3 mph - N/A   Mostly Cloudy
9:00 PM 57.2 °F 55.4 °F 94% 29.74 in 3.7 mi East 2.3 mph - N/A Rain Light Rain
9:30 PM 57.2 °F 55.4 °F 94% 29.74 in 3.7 mi North 4.6 mph - N/A Rain Light Rain
10:00 PM 57.2 °F 55.4 °F 94% 29.74 in 3.7 mi North 4.6 mph - N/A Rain Light Rain
10:30 PM 57.2 °F 55.4 °F 94% 29.74 in 2.5 mi North 5.8 mph - N/A Rain Light Rain
11:00 PM 57.2 °F 55.4 °F 94% 29.77 in 1.9 mi North 8.1 mph - N/A Rain , Thunderstorm Light Thunderstorms and Rain
11:30 PM 57.2 °F 55.4 °F 94% 29.77 in 2.5 mi SSE 3.5 mph - N/A Rain , Thunderstorm Light Thunderstorms and Rain